Location: Rochester
(43.1610°N, 77.6109°W)
Time: 04:14:58
(UTC-05:00)

CUTE 1.7 + AOD 2 - Pass Details

Date: 19 October 2021
Orbit: 592 x 610 km, 97.6° (Epoch: 28 November)

Event Time Altitude Azimuth Distance (km) Brightness Sun altitude
Rises 06:10:44 0° 2° (N) 2,884 ? -15.0°
Reaches altitude 10° 06:13:06 10° 352° (N) 1,975 ? -14.6°
Maximum altitude 06:16:51 30° 291° (WNW) 1,097 ? -13.9°
Enters shadow 06:19:39 15° 237° (WSW) 1,636 ? -13.4°
